Weather History for El Paso, TX

Change the Weather History Date:

Friday, March 22, 2013

  Actual Average Record
Temperature  
Mean Temperature 68 °F 58 °F  
Max Temperature 79 °F 72 °F 84 °F (1990)
Min Temperature 57 °F 44 °F 26 °F (1955)
Degree Days  
Heating Degree Days 0 7  
Month to date heating degree days 126 213  
Since 1 July heating degree days 2091 2316  
Cooling Degree Days 3 0  
Month to date cooling degree days 22 0  
Year to date cooling degree days 22 0  
Growing Degree Days 18 (Base 50)    
Moisture  
Dew Point 21 °F    
Average Humidity 18    
Maximum Humidity 25    
Minimum Humidity 11    
Precipitation  
Precipitation 0.00 in 0.00 in 0.39 in (1939)
Month to date precipitation T 0.19  
Year to date precipitation 0.71 1.05  
Snow  
Snow 0.00 in - - ()
Month to date snowfall 0.0  
Since 1 July snowfall 3.1  
Snow Depth 0.00 in    
Sea Level Pressure  
Sea Level Pressure 29.59 in    
Wind  
Wind Speed 17 mph (WSW)    
Max Wind Speed 35 mph    
Max Gust Speed 51 mph    
Visibility 10 miles    
Events      
T = Trace of Precipitation, MM = Missing Value Source: NWS Daily Summary

Daily Weather History Graph

Daily Weather History Graph

Search for Another Location

Airport:

Trip Planner

Search our weather history database for the weather conditions in past years. The results will help you decide how hot, cold, wet, or windy it might be!

Date:

Astronomy

Mar. 22, 2013 Rise Set
Actual Time 7:06 AM MDT 7:18 PM MDT
Civil Twilight 6:41 AM MDT 7:42 PM MDT
Nautical Twilight 6:13 AM MDT 8:11 PM MDT
Astronomical Twilight 5:44 AM MDT 8:40 PM MDT
Moon 3:02 PM MDT (3/22) 3:53 AM MDT (3/22)
Length of Visible Light 13h 01m
Length of Day
12h 12m
Waxing Gibbous, 78% of the Moon is Illuminated
Mar 22
Waxing Gibbous
Mar 27
Full
Apr 2
Last Quarter
Apr 10
New
Apr 18
First Quarter

Hourly Weather History & Observations

Time (MDT) Temp. Dew Point Humidity Pressure Visibility Wind Dir Wind Speed Gust Speed Precip Events Conditions
12:51 AM 66.9 °F 19.9 °F 17% 29.58 in 10.0 mi NW 11.5 mph - N/A   Mostly Cloudy
1:51 AM 64.0 °F 19.9 °F 18% 29.59 in 10.0 mi Calm Calm - N/A   Mostly Cloudy
2:51 AM 61.0 °F 19.9 °F 21% 29.59 in 10.0 mi South 3.5 mph - N/A   Mostly Cloudy
3:51 AM 59.0 °F 21.0 °F 23% 29.59 in 10.0 mi South 9.2 mph - N/A   Mostly Cloudy
4:51 AM 57.9 °F 21.0 °F 24% 29.59 in 10.0 mi South 9.2 mph - N/A   Mostly Cloudy
5:51 AM 57.9 °F 21.0 °F 24% 29.61 in 10.0 mi South 8.1 mph - N/A   Mostly Cloudy
6:51 AM 57.9 °F 23.0 °F 26% 29.63 in 10.0 mi SW 11.5 mph - N/A   Mostly Cloudy
7:51 AM 61.0 °F 24.1 °F 24% 29.64 in 10.0 mi WSW 9.2 mph - N/A   Mostly Cloudy
8:51 AM 63.0 °F 24.1 °F 23% 29.66 in 10.0 mi SSW 10.4 mph - N/A   Mostly Cloudy
9:51 AM 66.9 °F 26.1 °F 21% 29.66 in 10.0 mi WSW 16.1 mph - N/A   Mostly Cloudy
10:51 AM 70.0 °F 25.0 °F 18% 29.65 in 10.0 mi WSW 20.7 mph 28.8 mph N/A   Mostly Cloudy
11:51 AM 70.0 °F 21.9 °F 16% 29.63 in 10.0 mi West 25.3 mph 31.1 mph N/A   Mostly Cloudy
12:51 PM 75.0 °F 18.0 °F 12% 29.60 in 10.0 mi WSW 17.3 mph 36.8 mph N/A   Mostly Cloudy
1:51 PM 75.0 °F 19.0 °F 12% 29.57 in 10.0 mi West 19.6 mph 41.4 mph N/A   Scattered Clouds
2:51 PM 77.0 °F 21.0 °F 12% 29.53 in 10.0 mi WSW 19.6 mph 31.1 mph N/A   Scattered Clouds
3:51 PM 75.9 °F 23.0 °F 14% 29.50 in 10.0 mi West 19.6 mph 25.3 mph N/A   Mostly Cloudy
4:51 PM 78.1 °F 24.1 °F 14% 29.49 in 10.0 mi West 18.4 mph 44.9 mph N/A   Scattered Clouds
5:51 PM 77.0 °F 25.0 °F 15% 29.48 in 10.0 mi West 28.8 mph 36.8 mph N/A   Partly Cloudy
6:51 PM 75.0 °F 23.0 °F 14% 29.50 in 10.0 mi West 32.2 mph 36.8 mph N/A   Partly Cloudy
7:51 PM 73.9 °F 21.9 °F 14% 29.52 in 10.0 mi West 27.6 mph 38.0 mph N/A   Partly Cloudy
8:51 PM 73.0 °F 19.9 °F 14% 29.54 in 10.0 mi West 19.6 mph 35.7 mph N/A   Partly Cloudy
9:51 PM 71.1 °F 18.0 °F 13% 29.58 in 10.0 mi West 18.4 mph 31.1 mph N/A   Partly Cloudy
10:51 PM 70.0 °F 16.0 °F 13% 29.59 in 10.0 mi West 19.6 mph 33.4 mph N/A   Partly Cloudy
11:51 PM 68.0 °F 14.0 °F 12% 29.78 in 10.0 mi West 26.5 mph 33.4 mph N/A   Partly Cloudy